Houlton, ME

7:00 PM EDT on October 16, 2017 (GMT -0400)
Houlton International

Weather History for KHUL - June, 2013

Change the Weather History Date:

Monday, June 10, 2013

  Actual Average Record
Temperature  
Mean Temperature 58 °F 59 °F  
Max Temperature 75 °F 71 °F 91 °F (1970)
Min Temperature 40 °F 46 °F 31 °F (1951)
Degree Days  
Heating Degree Days 7 7  
Month to date heating degree days 72 82  
Since 1 June heating degree days 72 82  
Since 1 July heating degree days 8422 9089  
Cooling Degree Days 0 1  
Month to date cooling degree days 10 6  
Year to date cooling degree days 14 10  
Since 1 June cooling degree days 10 6  
Growing Degree Days 7 (Base 50)    
Moisture  
Dew Point 49 °F    
Average Humidity 69    
Maximum Humidity 96    
Minimum Humidity 41    
Precipitation  
Precipitation T in 0.12 in 1.78 in (2006)
Month to date precipitation 2.05 1.11  
Year to date precipitation 13.28 15.74  
Snow  
Snow 0.00 in 0.00 in 0.00 in (2003)
Month to date snowfall 0.0 0.0  
Since 1 June snowfall 0.0 0.0  
Snow Depth 0.00 in    
Sea Level Pressure  
Sea Level Pressure 30.11 in    
Wind  
Wind Speed 4 mph (SW)    
Max Wind Speed 16 mph    
Max Gust Speed 21 mph    
Visibility 10 miles    
Events Rain    
T = Trace of Precipitation, MM = Missing Value Source: NWS Daily Summary

Daily Weather History Graph

Daily Weather History Graph

Search for Another Location

Airport or City:

Trip Planner

Search our weather history database for the weather conditions in past years. The results will help you decide how hot, cold, wet, or windy it might be!

Date:

Astronomy

Jun. 10, 2013 Rise Set
Actual Time 4:39 AM EDT 8:21 PM EDT
Civil Twilight 4:01 AM EDT 9:00 PM EDT
Nautical Twilight 3:09 AM EDT 9:51 PM EDT
Astronomical Twilight 1:59 AM EDT 11:03 PM EDT
Moon 6:30 AM EDT (6/10) 9:40 PM EDT (6/10)
Length of Visible Light 16h 58m
Length of Day
15h 42m
Waxing Crescent, 4% of the Moon is Illuminated
Jun 10
Waxing Crescent
Jun 16
First Quarter
Jun 23
Full
Jun 30
Last Quarter
Jul 8
New

Hourly Weather History & Observations

Time (EDT) Temp. Windchill Dew Point Humidity Pressure Visibility Wind Dir Wind Speed Gust Speed Precip Events Conditions
12:53 AM 50.0 °F - 48.0 °F 93% 30.14 in 10.0 mi NW 4.6 mph - N/A   Clear
1:53 AM 46.0 °F 44.8 °F 45.0 °F 96% 30.14 in 10.0 mi West 3.5 mph - N/A   Clear
2:53 AM 44.1 °F - 42.1 °F 93% 30.14 in 10.0 mi Calm Calm - N/A   Clear
3:53 AM 44.1 °F - 43.0 °F 96% 30.15 in 10.0 mi Calm Calm - N/A   Clear
4:53 AM 41.0 °F - 39.9 °F 96% 30.16 in 9.0 mi Calm Calm - N/A   Clear
5:53 AM 42.1 °F - 41.0 °F 96% 30.17 in 10.0 mi Calm Calm - N/A   Clear
6:53 AM 51.1 °F - 46.9 °F 86% 30.17 in 10.0 mi Calm Calm - N/A   Clear
7:53 AM 55.0 °F - 48.9 °F 80% 30.19 in 10.0 mi Calm Calm - N/A   Clear
8:53 AM 59.0 °F - 50.0 °F 72% 30.18 in 10.0 mi NW 3.5 mph - N/A   Clear
9:53 AM 63.0 °F - 51.1 °F 65% 30.17 in 10.0 mi North 3.5 mph - N/A   Clear
10:53 AM 66.9 °F - 50.0 °F 54% 30.16 in 10.0 mi Variable 3.5 mph - N/A   Clear
11:53 AM 69.1 °F - 50.0 °F 51% 30.14 in 10.0 mi West 8.1 mph - N/A   Clear
12:53 PM 71.1 °F - 50.0 °F 47% 30.12 in 10.0 mi SW 8.1 mph - N/A   Clear
1:53 PM 72.0 °F - 48.0 °F 43% 30.10 in 10.0 mi Variable 3.5 mph - N/A   Clear
2:53 PM 73.9 °F - 48.9 °F 41% 30.08 in 10.0 mi SSW 9.2 mph - N/A   Clear
3:53 PM 73.9 °F - 51.1 °F 45% 30.06 in 10.0 mi SW 10.4 mph - N/A   Clear
4:53 PM 73.9 °F - 50.0 °F 43% 30.06 in 10.0 mi SW 10.4 mph - N/A   Clear
5:53 PM 72.0 °F - 51.1 °F 48% 30.04 in 10.0 mi SW 10.4 mph - N/A   Clear
6:53 PM 70.0 °F - 52.0 °F 53% 30.04 in 10.0 mi SSW 4.6 mph - N/A   Clear
7:53 PM 66.9 °F - 52.0 °F 59% 30.05 in 10.0 mi SSW 3.5 mph - N/A   Partly Cloudy
8:53 PM 63.0 °F - 54.0 °F 72% 30.04 in 10.0 mi SSW 4.6 mph - 0.00 in Rain Light Rain
9:53 PM 63.0 °F - 52.0 °F 67% 30.04 in 10.0 mi South 5.8 mph - 0.00 in   Clear
10:53 PM 57.9 °F - 52.0 °F 81% 30.03 in 10.0 mi SSW 4.6 mph - N/A   Clear
11:53 PM 60.1 °F - 53.1 °F 78% 30.01 in 10.0 mi SSW 4.6 mph - N/A   Clear